www.pogodaiklimat.ru

ПОГОДА в Хэнкоке, MI

  • Прогноз погоды в Хэнкоке
  • Монитор погоды в Хэнкоке
  • Климат в Хэнкоке

АРХИВ ПОГОДЫ в Хэнкоке

Время (UTC), дата Ветер
(напр.,м/с)
 
Видим.   Явления Облачность Т
(С)
Тd
(С)
f
(%)
Тe
(С)
Тes
(С)
Комфортность

P
(гПа)

Po
(гПа)
Тmin
(С)
Tmax
(С)
R
(мм)
SD
(см)
16:53 24.06 СЗ  16 км    10/10 420 м  +17.2  +15.0  87  +17  +17    999.0  959.9  +13.9  +21.7     
17:28 24.06 СЗ  16 км    10/10 390 м  +18.3  +15.6  84  +19  +19      959.6         
17:53 24.06 СЗ  16 км    10/10 210 м  +18.9  +16.1  84  +20  +20    998.2  959.3         
18:01 24.06 С  16 км    10/10 210 м  +19.4  +16.1  81  +21  +21  комфорт    959.3         
18:53 24.06 СЗ  16 км    10/10 180 м  +17.2  +15.0  87  +17  +17    998.3  959.3         
19:30 24.06 СЗ  16 км    10/10 180 м  +15.6  +13.9  90  +14  +14      959.6         
19:53 24.06 СЗ  16 км    10/10 90 м  +13.9  +12.2  89  +12  +12    998.5  959.3      0.3   
20:34 24.06 СЗ  3 км  дымка  10/10 60 м  +11.7  +10.0  89  +9  +9      959.3         
20:53 24.06 СЗ  2 км  дымка  10/10 60 м  +11.7  +10.6  93  +8  +8    998.8  959.6         
21:03 24.06 З  1 км  дымка  10/10 60 м  +11.7  +10.6  93  +9  +9      959.6         
21:39 24.06 З  2 км  дымка  10/10 60 м  +11.7  +10.6  93  +9  +9      959.3         
21:47 24.06 З  5 км  дымка  10/10 60 м  +12.0  +11.0  94  +9  +9      959.3         
21:53 24.06 З  10 км  дымка  10/10 60 м  +12.2  +10.6  90  +9  +9    998.3  959.3         
22:20 24.06 З  3 км  дымка  10/10 60 м  +11.7  +10.6  93  +9  +9      959.6         
22:31 24.06 З  1 км  дымка  10/10 60 м  +11.7  +10.6  93  +9  +9      959.3         
22:53 24.06 З  2 км  дымка  10/10 60 м  +11.7  +10.6  93  +9  +9    998.6  959.3  +11.7  +20.0  0.3   
23:04 24.06 З  800 м  туман  ?/?  +11.7  +10.6  93  +9  +9      959.6         
23:32 24.06 З  2 км  дымка  10/10 60 м  +11.7  +10.6  93  +9  +9      959.6         
23:53 24.06 З  2 км  дымка  10/10 60 м  +11.7  +10.6  93  +9  +9    998.8  959.6         
00:02 25.06 З  800 м  туман  ?/?  +11.7  +10.6  93  +9  +9      959.6         
00:21 25.06 З  2 км  дымка  10/10 60 м  +11.7  +10.6  93  +9  +9      959.6         
00:43 25.06 З  800 м  туман  ?/?  +11.7  +10.6  93  +9  +9      959.6         
00:53 25.06 З  400 м  туман  ?/?  +11.7  +10.6  93  +9  +9    998.6  959.6         
01:03 25.06 З  800 м  туман  ?/?  +11.7  +10.6  93  +9  +9      959.3         
01:22 25.06 З  2 км  дымка  10/10 60 м  +11.7  +10.6  93  +9  +9      959.6         
01:53 25.06 З  2 км  дымка  ?/?  +11.7  +10.6  93  +9  +9    999.0  959.9         
02:09 25.06 З  5 км  дымка  10/10 60 м  +11.7  +10.6  93  +9  +9      959.9         
02:53 25.06 З  16 км    10/10 60 м  +12.2  +10.6  90  +10  +10    998.6  959.6         
03:53 25.06 З  16 км    10/10 90 м  +13.3  +11.7  90  +11  +11    998.8  959.9         
04:06 25.06 З  16 км    10/10 120 м  +13.3  +11.7  90  +11  +11      959.9         
04:53 25.06 З  16 км    10/10 510 м  +13.9  +11.7  87  +11  +11    998.9  959.9  +11.1  +14.4     
05:53 25.06 З  8
{11} 
14 км  слабый дождь  10/10 660 м  +14.4  +12.2  87  +12  +12    999.0  960.2         
06:11 25.06 З  16 км    10/10 660 м  +14.4  +12.2  87  +12  +12      960.2         
06:53 25.06 З  16 км  слабый дождь  10/10 900 м  +14.4  +12.8  90  +12  +12    999.4  960.2         
07:53 25.06 З  16 км    10/10 1500 м  +14.4  +12.8  90  +12  +12    999.7  960.6      0.3   
08:45 25.06 З  7
{11} 
16 км    10/8 240 м
[средняя] 
+15.0  +12.8  87  +13  +13      961.2         
08:53 25.06 З  16 км    10/8 240 м
[средняя] 
+15.0  +12.8  87  +13  +13    1000.6  961.2         
09:53 25.06 З  16 км  слабый дождь  10/5 1800 м
[средняя] 
+14.4  +12.8  90  +12  +12    1001.1  961.9         
10:53 25.06 З  7
{12} 
16 км    8/0 2700 м
[средняя] 
+15.6  +12.8  83  +14  +14    1001.2  961.9  +13.9  +15.6  1.5   
11:53 25.06 З  9
{12} 
16 км    ясно  +17.2  +13.3  78  +16  +16    1001.5  962.5         
12:53 25.06 З  9
{13} 
16 км    ясно  +19.4  +12.8  66  +20  +20    1001.8  962.9         
13:53 25.06 З  9
{14} 
16 км    ясно  +21.1  +12.2  57  +23  +23  комфорт  1001.9  962.9         
14:53 25.06 З  8
{14} 
16 км    ясно  +22.2  +12.2  53  +25  +26  комфорт  1002.2  963.2         
15:53 25.06 З  8
{15} 
16 км    2/0 2700 м
[средняя] 
+22.8  +12.2  51  +25  +27  комфорт  1002.2  963.2         
16:53 25.06 З  9
{15} 
16 км    ясно  +25.0  +12.2  45  +27  +27  жарко  1002.0  963.2  +15.6  +25.0     
17:53 25.06 З  9
{14} 
16 км    ясно  +25.6  +10.0  37  +26  +27  жарко  1002.0  963.2         
18:53 25.06 З  10
{17} 
16 км    ясно  +25.6  +9.4  36  +26  +26  жарко  1001.7  962.9         
19:53 25.06 З  11
{16} 
16 км    ясно  +25.6  +11.1  40  +27  +27  жарко  1002.0  963.2         

 

Местоположение метеостанции Houghton County Memorial Airport: широта 47.1683 долгота -88.4889 высота над уровнем моря 334 м.

В архиве по умолчанию представлена погода в Хэнкоке за последние 1-2 суток. Обновление информации о фактической погоде в базе происходит ежечасно! Архивные данные за месяц целиком и за предыдущие месяцы Вы можете получить, выбрав интересующий диапазон дат из раскрывающегося списка и нажав кнопку "Ввод!".

Внимание! Архив погоды МЕТАР в базе сайта хранится не более 60 дней. Нет смысла пытаться выбрать более раннюю дату.

Внимание! Время в таблицах - всемирное. Для получения местного времени необходимо прибавить поправку, которая в Хэнкоке равна -5 ч.

Ветер - указаны скорость ветра в м/с и направление, откуда дует ветер: С - северный, СВ - северо-восточный, В - восточный, ЮВ - юго-восточный, Ю - южный, ЮЗ - юго-западный, З - западный, СЗ - северо-западный.
Видимость - горизонтальная дальность видимости в метрах или километрах. При видимости от 1 до 10 км при отсутствии осадков обычно наблюдается дымка, при ухудшении видимости до 1 км и менее - туман. В сухую погоду видимость может ухудшаться дымом, пылью или мглою.
Атмосферные явления - указаны явления, наблюдавшиеся в указанный момент времени.
Облачность - указаны через наклонную черту верхняя и нижняя облачность в баллах и высота нижней границы облаков в метрах. Внимание: облачность, как и прочие метеорологические величины в США измеряются автоматическими метеостанциями. Указанные значения в баллах носят условный характер и показывают процент времени, в течение которого, в среднем, лазерный луч высотомера отражался от облаков обратно.
T - Температура воздуха - температура, измеренная на высоте 2 м над землей.
Td - Температура точки росы - температура, при понижении до которой содержащийся в воздухе водяной пар достигнет насыщения.
f - Относительная влажность воздуха - влажноcть воздуха, измеренная на высоте 2 м над землей.
Te - Эффективная температура - температура, которую ощущает одетый по сезону человек в тени. Характеристика душности погоды. При расчете учитывается влияние влажности воздуха и скорости ветра на теплоощущения человека.
Tes - Эффективная температура на солнце - температура, которую ощущает человек, с поправкой на солнечный нагрев. Характеристика знойности погоды. Зависит от высоты солнца над горизонтом, облачности и скорости ветра. Ночью, в пасмурную погоду, а также при ветре 12 м/с и более поправка равна нулю.
P - Атмосферное давление - приведенное к уровню моря атмосферное давление.
Po - Атмосферное давление - измеренное на уровне метеостанции атмосферное давление.
Tmin - Минимальная температура - минимум температуры воздуха на высоте 2 м над землей.
Tmax - Максимальная температура - максимум температуры воздуха на высоте 2 м над землей.
R - Количество осадков - Количество выпавших осадков за 3 или 6 часов, мм.
SD - Снежный покров - Высота снежного покрова, см.